Hourly Data Report for October 24, 2015

All times are specified in Local Standard Time (LST). Add 1 hour to adjust for Daylight Saving Time where and when it is observed.

KAMLOOPS A
BRITISH COLUMBIA

50°42'09.000" N
120°26'55.000" W
345.30 m
1163781
71887
YKA

Download Data

Hourly Data (October 2015)
Hourly Data Report for October 24, 2015
Temp Definition
°C
Dew Point Temp Definition
°C
Rel Hum Definition
%
Wind Dir Definition
10's deg

Wind Spd Definition
km/h
Visibility Definition
km
Stn Press Definition
kPa
Hmdx Definition


Wind Chill Definition


Weather Definition


TIME
00:00 Legend Double Dagger 2.8 0.2 83 8 3 64.4 98.05     LegendNANA
01:00 Legend Double Dagger 0.4 -2.0 84 3 4 64.4 98.08     Clear
02:00 Legend Double Dagger 0.4 -1.7 86 4 3 64.4 98.10     LegendNANA
03:00 Legend Double Dagger 0.2 -1.4 89 9 3 64.4 98.10     LegendNANA
04:00 Legend Double Dagger -0.8 -1.9 92 10 4 64.4 98.11   -2 Clear
05:00 Legend Double Dagger 0.5 -1.3 88 36 3 64.4 98.13     LegendNANA
06:00 Legend Double Dagger -0.7 -1.7 93 8 5 64.4 98.16   -2 LegendNANA
07:00 Legend Double Dagger -1.5 -2.5 93 9 4 48.3 98.18   -3 Mostly Cloudy
08:00 Legend Double Dagger 0.2 -1.3 90 4 4 48.3 98.22     LegendNANA
09:00 Legend Double Dagger 3.8 1.2 83 10 10 64.4 98.21     LegendNANA
10:00 Legend Double Dagger 5.4 1.3 75 14 12 64.4 98.17     Mainly Clear
11:00 Legend Double Dagger 7.1 1.4 67 14 16 64.4 98.07     LegendNANA
12:00 Legend Double Dagger 8.6 1.5 61 14 16 64.4 97.97     LegendNANA
13:00 Legend Double Dagger 9.9 1.1 54 11 16 64.4 97.87     Mainly Clear
14:00 Legend Double Dagger 10.9 0.9 50 12 15 64.4 97.80     LegendNANA
15:00 Legend Double Dagger 10.8 1.4 52 12 13 64.4 97.75     LegendNANA
16:00 Legend Double Dagger 10.1 1.8 56 12 9 64.4 97.72     Mostly Cloudy
17:00 Legend Double Dagger 7.6 1.0 63 7 9 64.4 97.74     LegendNANA
18:00 Legend Double Dagger 7.7 2.4 69 11 10 64.4 97.76     LegendNANA
19:00 Legend Double Dagger 5.6 1.0 72 9 12 64.4 97.77     Cloudy
20:00 Legend Double Dagger 4.5 0.7 76 5 3 64.4 97.79     LegendNANA
21:00 Legend Double Dagger 4.5 1.2 79 10 10 64.4 97.81     LegendNANA
22:00 Legend Double Dagger 4.9 1.6 79 12 10 64.4 97.82     Cloudy
23:00 Legend Double Dagger 3.5 0.6 81 9 15 64.4 97.82     LegendNANA

Notes on Data Quality.

Legend

  • E = Estimated
  • M = Missing
  • NA = Not Available
  • ‡ = Partner data that is not subject to review by the National Climate Archives
Date modified: